Theta_e
288 288 288 288 288 287 286 285 285 285 284 283 283 283 283 283 282 282 282 282 282 281 281 281 281 281 281 281 281 281 281 281
288 288 289 288 287 286 286 285 284 284 284 283 283 283 283 282 282 282 282 281 281 281 281 281 280 280 280 280 280 280 280 280
288 287 287 287 287 286 285 284 285 284 283 283 283 282 282 281 282 282 281 281 281 281 280 280 280 280 279 279 279 279 279 279
287 287 287 287 287 286 285 284 284 283 283 282 281 281 281 281 281 281 281 281 281 281 280 280 280 280 279 279 279 279 279 279
286 287 287 287 287 286 285 284 284 283 282 281 281 281 281 281 281 281 281 281 281 281 281 280 280 280 280 279 279 279 279 280
286 287 287 287 287 286 285 284 283 282 281 281 281 281 281 280 281 281 281 281 281 281 281 281 281 280 279 279 279 279 278 279
287 288 287 287 287 286 284 283 283 282 281 281 280 280 280 280 280 280 280 280 281 281 281 281 282 283 282 279 278 278 278 278
288 288 289 288 288 286 285 284 283 282 281 280 280 280 280 280 280 280 279 280 280 280 281 281 282 283 282 280 278 277 278 278
289 289 290 290 288 287 285 283 283 282 281 280 280 280 280 280 280 279 279 279 279 280 280 281 282 283 282 280 278 278 277 278
290 291 290 290 288 287 284 283 282 281 280 280 280 280 279 279 279 279 279 279 279 280 280 280 281 283 282 280 278 277 277 278
289 290 289 290 288 286 284 283 282 281 281 281 281 280 279 279 279 280 280 279 280 280 280 280 281 283 282 280 279 277 277 277
289 289 289 288 286 284 284 283 284 283 282 281 280 280 280 280 279 279 279 279 279 279 279 280 281 282 283 281 279 278 276 276
287 287 286 286 285 284 283 285 284 282 281 280 280 280 280 279 279 279 279 278 278 278 277 279 281 281 283 282 280 279 276 274
285 286 285 284 285 283 284 284 283 282 281 280 280 280 280 279 278 278 278 277 277 277 276 277 278 280 283 282 281 279 276 275
285 284 284 282 283 284 283 283 283 282 281 280 279 279 279 279 279 279 278 277 276 276 276 276 277 277 279 279 279 278 277 276
283 283 282 281 281 281 281 282 282 282 280 280 280 279 278 279 279 279 279 279 277 277 277 275 275 277 279 278 275 274 272 266
281 281 280 279 280 281 282 283 282 281 280 279 279 279 278 278 278 282 281 282 282 281 279 277 279 281 282 281 280 278 275 266
281 281 278 278 279 281 282 282 282 282 280 280 279 278 278 277 277 276 280 282 283 282 282 281 280 282 282 282 281 279 275 266
279 279 278 277 278 281 283 282 282 283 281 280 280 279 279 278 278 278 277 276 278 283 282 282 282 283 283 283 282 276 271 264
275 278 275 277 280 281 282 282 282 282 281 281 280 280 280 279 279 278 278 277 277 276 282 281 283 283 284 284 278 275 272 265
Wind_Speed
12 12 9 9 8 8 8 9 8 8 7 8 8 8 7 7 7 6 5 5 6 7 7 9 9 9 9 9 9 10 8 8
11 11 11 9 8 8 8 8 8 8 7 8 7 8 7 7 6 6 6 5 5 6 6 8 9 9 8 10 10 11 11 11
9 10 10 11 10 11 9 9 7 7 9 8 7 7 7 7 6 6 7 5 5 4 6 6 8 8 9 9 8 11 11 11
8 10 11 11 11 11 10 9 9 9 8 9 8 7 7 7 6 6 7 5 5 5 6 5 7 8 9 8 8 9 10 10
9 11 12 12 12 11 11 11 11 10 9 9 9 8 8 7 6 6 6 6 5 5 6 5 5 7 7 8 8 8 9 9
12 12 12 13 13 12 11 12 12 12 11 11 9 8 8 7 7 6 6 5 5 5 5 4 5 6 7 7 8 8 9 9
11 12 14 15 15 13 13 12 12 12 11 10 10 10 9 8 8 6 6 5 5 4 4 4 4 12 12 8 7 8 8 8
13 15 14 16 16 16 15 13 13 12 10 10 10 11 9 9 9 8 7 6 5 4 4 5 5 11 12 10 6 7 7 7
9 11 13 14 15 14 14 15 14 13 12 12 11 11 9 9 9 8 7 7 6 5 4 5 4 10 12 10 6 7 8 7
8 9 10 13 14 14 13 13 14 14 13 13 13 12 12 11 9 7 7 6 5 5 5 5 4 8 9 6 4 5 7 6
6 6 10 11 13 15 15 16 16 16 15 14 14 13 14 13 11 8 7 8 6 6 5 4 5 7 8 6 3 5 4 5
2 6 9 10 13 14 14 18 16 13 13 13 13 12 12 11 9 9 8 7 6 6 4 4 5 5 7 7 3 4 4 4
5 1 4 9 12 12 15 10 11 13 15 13 14 10 10 12 10 9 9 8 7 6 4 2 4 6 7 7 6 6 5 4
5 1 4 7 10 12 10 11 12 13 13 12 12 12 12 12 11 9 9 8 8 7 5 4 3 2 10 8 7 8 5 4
5 3 5 6 8 8 8 11 14 14 14 13 13 12 11 9 9 10 10 9 8 8 7 6 4 4 4 3 4 7 5 7
5 5 7 6 7 6 9 13 13 13 11 11 10 12 11 11 11 11 10 12 11 10 9 10 8 8 10 9 5 5 5 5
5 5 6 6 7 8 11 14 13 12 11 11 10 10 10 10 8 16 13 18 18 14 11 6 7 16 18 16 14 12 14 2
8 7 4 6 8 8 10 13 14 13 13 10 13 12 12 11 11 11 12 17 19 18 18 18 14 18 20 18 15 15 12 3
8 8 6 7 9 9 12 13 13 13 16 12 13 12 12 12 12 10 11 11 11 19 16 19 19 19 20 20 16 8 6 3
7 9 5 7 10 9 12 14 14 12 11 12 11 11 13 12 12 11 11 10 9 5 15 16 21 20 21 22 9 9 7 5
Wind_Direction
175 173 177 173 166 157 158 153 151 144 142 135 134 125 126 118 106 97 79 66 61 57 57 63 60 51 52 59 47 56 48 46
186 176 170 162 161 161 156 150 158 150 142 141 140 133 127 118 113 111 104 89 65 58 66 72 67 55 54 58 51 56 51 44
182 171 170 171 166 170 166 161 165 156 146 149 145 138 132 129 128 125 111 99 90 74 77 74 76 65 61 60 51 56 51 45
176 183 181 179 177 175 170 165 159 157 157 152 153 148 144 142 139 132 120 111 100 93 89 83 80 76 66 60 54 56 52 49
197 192 185 181 180 177 175 171 164 159 162 162 161 160 153 151 150 138 127 124 115 100 96 89 84 77 72 64 56 57 53 53
202 196 190 186 183 181 176 168 167 167 171 170 158 153 151 156 153 143 135 129 126 116 101 95 89 82 74 67 59 55 56 52
208 197 195 192 190 181 175 176 173 172 176 164 157 156 162 156 157 151 145 140 134 124 115 101 95 92 82 73 68 57 54 54
211 206 200 196 185 186 177 168 172 171 167 170 165 164 171 161 160 158 160 145 144 140 131 120 109 105 94 81 73 69 55 53
223 212 204 192 190 177 171 171 173 175 169 169 171 168 165 168 172 161 164 153 152 153 156 142 132 123 109 96 84 72 59 48
227 206 186 186 178 173 170 172 173 179 177 172 171 170 168 175 177 168 170 155 157 157 171 151 149 148 128 118 105 81 66 48
279 170 169 177 171 172 175 177 187 179 180 175 175 176 177 175 174 173 175 163 155 157 175 165 163 164 146 138 139 111 94 58
349 194 182 158 164 177 182 193 189 174 170 172 177 181 175 168 168 163 166 163 157 158 168 165 174 169 166 160 173 143 123 96
18 176 154 156 167 182 197 187 175 169 166 178 172 172 175 165 164 167 166 164 166 164 174 179 182 173 165 162 166 148 137 123
347 134 165 167 180 192 195 160 168 166 174 181 174 172 175 167 168 169 176 174 176 177 183 181 187 180 165 162 163 141 119 133
331 281 220 194 195 197 158 164 167 180 177 172 179 176 173 173 179 178 184 181 183 182 182 181 188 185 156 139 155 150 127 115
295 265 248 195 198 179 162 161 175 172 170 178 181 182 179 188 187 192 198 190 186 192 180 174 197 200 175 156 160 150 146 110
288 258 246 204 203 190 172 170 171 176 174 176 179 184 187 187 186 208 202 198 203 193 178 187 184 183 187 178 184 178 159 103
282 278 237 207 206 194 182 177 182 185 180 182 183 182 183 188 187 186 204 204 208 202 194 192 184 186 189 185 187 187 168 193
276 275 235 214 218 192 178 187 194 192 183 183 189 189 184 187 190 186 186 188 199 209 197 199 195 190 190 181 174 188 178 188
273 272 233 224 234 181 181 190 196 190 187 190 191 192 194 186 186 190 188 191 191 177 199 200 194 194 192 188 185 196 200 196